Terminal Aerodrome Forecast
Issued by NWS

Current Version | Previous Version | Text Only | Print | Product List | Glossary On
Versions: 1 2 3 4 5 6 7 8 9 10 11 12 13 14 15 16 17 18 19 20 21 22 23 24 25 26 27 28 29 30 31 32 33 34
182
FTUS44 KEWX 240526
TAFSSF
TAF
KSSF 240526Z 2406/2506 12009KT P6SM SCT035
     FM240800 12005KT P6SM OVC015
     FM240900 12004KT 5SM BR OVC009
     FM241400 12007KT 5SM BR OVC012
     FM241700 13010KT P6SM BKN035=

USA.gov is the U.S. government's official web portal to all federal, state and local government web resources and services.